Theta_e
314 313 313 314 314 313 312 312 312 312 312 312 311 311 311 311 311 310 310 310 310 310 310 310 309 309 309 308 308 308 308 308 308 308 308 309 310 310 310 310 310 310 309 309 309 309 310 312 312 312 311 311 310 309 309 309 309 309 309 309 310 312 314 312 311 311 311 310 310 311 311 311 311 312 312 312 312 312 311 311 311 311 310 310 310 310
313 313 313 313 313 313 311 310 311 311 311 311 310 310 310 309 309 309 309 308 308 308 308 308 308 308 307 307 307 307 307 307 307 308 308 309 310 310 309 309 310 310 309 309 309 310 311 312 311 311 310 309 309 308 308 309 309 309 309 309 310 312 312 311 311 310 310 310 310 309 310 310 310 310 310 310 310 310 310 310 310 310 310 310 310 309
312 312 312 312 312 311 310 310 309 310 310 310 309 309 308 308 308 307 307 307 307 307 306 306 306 306 306 306 306 306 306 307 307 307 308 309 309 310 309 309 309 310 309 309 309 311 311 311 310 309 309 309 308 308 308 309 309 309 309 309 310 310 311 310 310 310 309 309 309 309 309 309 309 309 309 310 310 310 310 310 310 310 310 309 309 308
311 311 311 311 311 310 310 309 309 309 309 309 308 307 307 307 307 306 306 306 306 306 305 305 305 306 306 306 306 306 306 306 307 307 307 308 309 310 310 310 310 309 309 309 310 311 310 310 309 309 308 308 308 308 308 308 308 308 307 308 308 309 309 309 309 309 308 308 308 309 308 308 308 308 308 308 309 309 309 309 309 309 308 308 308 307
311 311 311 310 310 309 308 308 308 308 308 308 307 307 306 306 306 305 305 305 305 305 305 305 305 305 305 305 305 306 306 306 306 307 307 308 309 310 310 310 310 309 309 309 310 310 309 309 308 308 308 308 308 308 309 308 307 306 306 306 307 308 308 308 308 308 308 308 308 309 308 308 308 308 307 307 307 307 308 308 308 308 308 307 307 307
310 310 310 310 309 308 308 308 308 308 307 307 306 306 305 305 305 305 305 305 304 304 304 304 304 305 305 305 305 305 305 305 306 306 307 308 309 310 310 310 310 309 309 309 310 309 309 308 308 308 308 308 309 309 309 308 307 306 305 305 306 306 307 307 308 308 309 309 309 309 308 308 308 308 307 307 306 306 307 307 308 308 308 307 307 307
310 310 309 309 308 308 307 307 307 307 307 306 306 305 305 304 304 304 304 304 304 304 304 304 304 304 304 305 305 305 305 305 306 306 307 307 308 309 310 310 310 310 310 309 309 309 309 308 308 308 308 308 309 309 309 308 307 306 305 305 305 306 306 306 307 308 309 309 309 309 308 308 308 308 307 306 306 306 306 306 307 307 307 307 307 306
308 308 308 308 308 307 307 306 306 306 306 305 305 304 304 304 304 304 304 304 304 304 303 303 303 303 304 304 305 305 305 305 306 306 307 308 308 309 310 310 311 311 310 310 309 309 309 308 308 308 308 308 308 308 308 307 307 306 305 305 305 305 305 305 306 308 308 308 308 308 308 308 308 307 306 305 305 305 305 305 305 306 306 306 305 305
308 307 307 307 307 307 306 306 306 306 305 305 304 304 304 303 303 303 304 304 304 303 303 303 303 303 303 303 304 305 305 306 306 307 307 308 308 309 310 310 310 310 310 310 310 310 310 309 308 307 307 307 308 308 308 307 307 306 305 305 305 304 304 304 305 306 307 308 308 308 308 307 307 306 305 305 304 304 304 304 304 304 304 304 303 303
308 307 306 306 306 306 306 306 305 305 305 304 304 304 303 303 303 303 303 303 303 303 303 303 303 303 303 303 304 305 305 305 306 307 307 308 308 309 309 310 310 310 310 310 310 310 310 309 308 307 307 307 308 308 308 307 306 306 305 305 305 304 304 303 303 304 306 306 307 307 307 306 306 305 304 304 304 304 304 303 303 303 303 302 302 302
307 307 306 305 305 305 305 305 305 304 304 304 303 303 303 303 303 303 303 303 303 303 303 303 303 303 304 304 304 304 305 305 306 306 307 308 308 309 309 310 310 310 310 310 310 310 309 309 308 308 308 308 308 307 307 306 306 305 304 304 304 304 303 302 302 303 304 306 306 306 306 306 305 304 304 304 303 303 304 304 303 303 303 302 302 302
306 306 306 305 304 304 304 304 304 304 303 303 303 303 303 302 302 302 303 302 302 302 302 302 302 302 303 303 304 304 304 305 306 306 307 307 308 309 309 309 310 310 309 309 309 309 309 308 308 308 308 308 307 307 306 306 305 304 304 304 304 303 302 302 302 303 304 305 305 305 305 305 304 304 303 303 303 303 303 303 303 303 302 302 301 301
306 305 305 304 304 304 303 303 303 303 303 303 303 303 303 302 302 302 302 301 301 301 302 302 302 302 302 302 303 303 304 304 305 306 306 307 307 308 308 309 309 309 309 308 308 308 308 308 308 308 308 307 307 306 306 305 304 304 303 303 303 302 301 302 303 303 304 304 305 304 304 304 304 303 303 303 302 302 302 302 302 302 301 301 301 300
304 304 304 304 303 303 303 303 303 303 303 303 302 302 302 302 302 302 301 301 301 301 301 301 301 301 301 301 302 302 303 304 304 304 305 306 306 307 308 309 309 309 309 308 308 308 308 308 308 308 307 307 306 306 305 304 304 303 303 303 302 301 300 300 301 302 303 303 303 303 303 303 303 303 302 302 302 302 301 301 301 301 300 300 300 300
303 303 303 303 303 303 303 303 303 303 303 302 302 302 302 302 302 302 301 301 300 300 301 301 301 301 301 301 301 302 302 302 303 304 304 305 306 307 307 308 308 308 308 308 308 307 307 307 307 307 307 306 306 305 304 304 303 303 302 302 301 301 300 300 300 300 301 301 302 302 302 302 302 302 302 301 301 301 301 301 300 300 300 300 300 299
303 303 302 302 302 303 303 303 303 302 302 302 302 302 302 302 302 301 301 300 300 300 300 301 301 301 301 301 301 301 301 302 302 303 304 305 305 306 306 307 307 307 307 307 307 307 307 306 306 306 306 305 305 304 304 303 303 302 302 301 301 301 300 300 300 299 300 300 301 301 301 301 301 301 301 300 300 300 300 300 299 299 299 298 297 296
303 303 302 302 302 302 302 302 302 302 302 301 301 301 301 301 301 300 300 300 300 299 299 299 300 300 300 301 300 301 301 301 302 303 303 304 304 305 305 306 306 307 307 306 306 306 306 305 305 305 305 304 304 304 303 303 302 302 301 301 300 300 300 300 299 299 299 300 300 300 300 300 300 299 299 299 299 299 298 298 298 297 296 295 293 292
303 303 303 302 302 301 302 302 302 302 301 301 301 301 301 301 300 300 299 299 299 299 298 298 298 299 299 300 300 300 300 301 301 302 302 303 303 304 304 304 305 306 306 306 306 306 305 305 304 304 304 304 303 303 303 303 302 302 301 301 300 300 299 299 299 299 299 299 299 299 299 299 298 298 298 298 298 298 298 297 297 296 295 293 292 291
302 302 302 302 301 301 301 301 301 301 301 301 301 300 300 300 300 299 299 299 299 298 298 298 298 298 298 299 299 299 300 300 300 301 301 302 302 303 303 303 304 304 305 305 305 305 304 304 304 303 303 303 303 303 302 302 302 301 301 300 300 300 299 299 299 299 299 298 298 298 298 298 298 297 297 297 297 297 297 297 296 295 294 293 293 292
302 302 302 302 301 301 301 301 301 301 301 300 300 300 300 299 299 299 298 298 298 298 298 298 298 298 298 298 298 299 299 299 299 300 300 301 301 302 302 302 302 302 303 303 304 304 304 303 303 303 303 302 302 302 302 301 301 301 300 300 299 299 299 299 299 298 298 298 298 298 297 297 297 297 297 296 296 296 296 296 296 295 294 293 293 292
302 302 301 302 302 301 301 300 300 300 300 300 300 300 299 299 298 298 298 298 298 298 298 298 298 298 298 298 298 298 298 298 299 299 299 300 300 301 301 301 301 302 302 302 302 303 303 303 303 302 302 302 302 301 301 301 300 300 300 300 299 299 299 299 298 298 298 298 298 297 297 297 297 296 296 296 296 296 296 295 295 295 294 293 293 292
302 301 301 301 301 301 301 300 300 300 300 300 300 300 299 299 298 298 298 298 298 298 298 298 298 298 297 298 298 298 298 298 298 299 299 299 300 300 300 300 301 301 301 301 301 302 302 302 302 302 302 302 301 301 301 301 300 300 299 299 299 299 298 298 298 298 298 298 297 297 297 297 296 296 296 296 296 295 295 295 295 294 294 293 292 292
302 301 301 301 300 300 300 299 299 299 299 299 299 299 299 299 298 298 298 298 298 298 298 297 297 297 297 297 297 297 297 297 297 298 298 299 299 299 299 299 300 300 301 301 301 301 301 301 301 301 301 301 301 301 301 300 300 300 299 299 299 298 298 298 298 298 298 298 298 297 297 297 297 296 296 296 295 295 295 295 295 294 294 293 293 292
301 301 301 300 300 299 299 299 299 299 299 299 298 298 298 298 298 298 298 298 297 297 297 297 297 297 297 297 297 297 297 297 297 297 298 298 298 298 298 298 299 299 300 300 300 300 300 300 300 300 300 300 300 300 300 300 300 300 299 299 299 299 299 299 299 299 298 298 298 298 298 297 297 296 296 296 295 295 295 295 294 294 294 294 293 292
301 301 300 300 299 299 299 298 298 298 298 298 297 297 297 297 297 297 297 297 297 297 296 296 297 297 297 297 297 297 297 296 296 297 297 298 297 297 297 298 298 298 299 299 299 299 300 300 300 299 299 299 299 299 299 299 299 299 299 299 299 299 299 299 299 299 298 298 298 298 298 297 297 297 297 296 296 295 295 295 294 294 294 294 293 292
300 300 300 299 299 298 298 298 297 297 297 297 296 296 296 297 297 297 297 297 296 296 295 295 296 296 296 296 296 297 296 296 296 296 296 297 297 297 297 297 297 297 298 298 298 299 299 299 299 299 299 299 299 299 299 299 299 299 299 299 299 299 299 299 299 298 298 298 298 298 298 297 297 297 297 296 296 296 295 295 295 294 294 293 293 292
299 299 298 298 297 297 296 296 295 295 295 295 295 295 295 296 296 296 296 296 295 295 294 294 295 296 296 296 296 296 296 295 295 295 295 296 296 296 296 296 296 296 297 297 297 298 298 298 298 298 298 299 299 299 299 299 299 298 298 298 298 298 298 298 298 298 298 298 298 298 298 298 297 297 297 297 296 296 296 295 295 295 294 293 293 292
298 297 296 296 295 295 295 294 294 294 294 293 293 294 294 294 295 295 295 295 295 294 293 293 294 296 295 296 295 295 295 295 295 295 295 295 296 296 295 295 296 296 296 296 297 297 297 297 298 298 298 298 298 298 298 298 298 298 298 298 298 298 298 298 298 298 298 298 298 297 297 297 297 297 297 297 296 296 296 296 295 295 294 293 293 292
295 295 294 294 294 294 293 293 293 293 292 292 292 292 292 293 293 294 294 294 294 293 293 292 293 294 295 294 294 294 294 294 294 294 294 294 294 294 294 294 294 294 294 295 295 296 296 296 296 297 297 297 297 297 297 297 297 297 297 297 297 297 297 297 297 297 297 297 297 297 297 297 297 297 297 297 297 296 296 296 295 295 294 293 293 292
294 293 292 292 292 292 292 291 291 291 291 290 290 290 291 291 292 293 293 293 293 293 292 292 292 293 293 293 293 293 293 293 293 293 293 293 293 293 293 293 293 293 293 294 294 295 295 294 294 294 295 295 295 295 295 295 296 296 296 296 296 296 296 296 296 296 296 296 296 296 296 296 296 296 297 297 296 296 296 295 295 294 294 293 293 292
292 292 291 291 290 290 290 290 290 289 289 289 289 290 290 291 291 292 292 292 292 292 292 292 292 292 292 293 292 292 292 292 292 291 292 292 292 292 292 292 292 292 292 292 293 293 292 293 293 292 292 293 293 293 293 293 293 293 293 293 293 293 293 293 294 294 294 294 295 295 295 295 296 296 296 296 296 296 296 295 295 294 294 294 293 293
291 291 290 290 289 289 289 289 289 289 289 289 289 289 289 290 290 290 290 291 291 291 292 292 291 291 292 292 292 291 291 291 291 291 291 291 291 290 290 291 291 291 291 291 292 291 288 291 292 292 292 292 292 292 291 291 291 291 291 291 291 291 291 291 291 291 291 292 292 292 293 293 294 295 295 296 296 296 295 295 295 294 294 294 293 293
290 290 290 290 289 289 289 288 288 288 288 288 288 288 289 289 289 289 289 289 289 290 290 290 291 291 291 291 291 291 291 291 291 291 290 290 290 290 290 290 290 290 290 290 290 290 289 290 291 291 291 291 291 290 290 290 289 289 289 289 290 290 290 290 290 289 289 289 290 290 290 291 292 293 294 294 295 295 295 295 294 294 294 294 293 293
290 290 290 289 289 289 289 288 288 288 288 288 288 288 288 288 288 288 288 288 288 288 288 289 289 290 290 290 290 290 290 290 290 290 290 289 289 289 288 289 289 289 289 289 289 289 290 290 290 290 290 289 289 288 288 288 287 287 287 288 288 289 289 289 289 289 289 288 288 288 289 289 290 290 291 292 293 294 294 294 294 294 293 293 293 293
290 290 290 289 289 289 288 288 288 288 288 288 287 287 287 287 287 287 287 287 286 286 287 287 287 288 288 288 289 289 290 289 289 288 288 288 288 287 287 287 287 288 288 288 288 288 288 288 288 288 288 287 287 287 287 287 287 287 287 287 287 287 287 287 287 287 287 287 287 287 287 287 288 288 289 289 290 291 291 292 292 292 292 292 292 292
291 290 290 290 289 289 288 288 288 288 287 287 287 287 286 286 286 286 286 286 286 285 285 285 285 285 286 286 287 288 288 288 287 287 287 287 286 286 286 286 286 286 286 287 287 287 287 287 287 286 286 286 286 286 286 286 286 286 286 286 286 286 286 286 286 286 286 286 286 286 286 287 287 287 287 287 287 288 288 289 289 289 290 290 291 291
292 291 290 290 289 289 289 288 288 287 287 287 287 286 286 286 286 286 286 286 286 286 286 286 285 285 285 285 285 285 285 285 285 285 285 285 285 285 285 285 285 285 285 285 285 285 286 286 285 285 285 285 285 286 286 286 285 285 285 285 286 286 285 285 285 285 285 285 286 286 286 286 286 286 286 286 286 286 286 286 286 287 287 288 289 290
293 292 291 290 289 289 289 289 288 287 287 287 287 287 287 287 287 287 287 287 287 287 287 287 287 286 286 286 286 285 285 285 285 285 284 285 284 284 285 285 285 285 284 285 285 284 284 284 285 285 285 285 285 285 285 285 284 284 284 284 284 284 284 284 284 284 284 284 285 285 285 285 285 285 285 285 285 285 285 285 285 285 285 286 287 289
294 293 292 291 290 289 289 289 288 288 287 287 287 288 288 288 288 288 289 289 288 288 288 288 287 287 287 286 286 286 286 286 285 285 285 285 284 284 284 284 284 284 284 284 284 284 284 284 284 284 284 284 284 284 284 284 284 283 283 283 283 283 283 283 283 283 283 283 283 284 284 285 285 285 285 285 285 285 285 285 284 284 285 285 286 287
294 294 293 292 291 290 289 289 289 288 288 288 288 288 289 289 289 289 289 289 289 289 288 288 288 287 287 287 287 286 286 286 286 285 285 285 285 285 285 284 284 284 284 284 284 284 284 283 283 283 283 283 283 283 283 283 283 283 283 283 283 283 283 283 283 282 282 282 283 283 284 284 284 285 284 284 284 284 284 284 284 284 284 285 285 286
294 294 294 293 291 290 290 290 289 289 288 288 288 289 289 289 289 289 289 289 289 288 288 288 288 287 287 287 286 286 286 286 285 285 285 285 285 285 285 285 284 284 284 284 284 284 284 283 283 283 283 283 283 283 283 283 283 283 283 282 283 283 283 283 283 282 282 283 283 284 284 285 285 285 285 284 284 284 284 284 284 284 285 285 285 286
295 295 295 293 291 290 290 290 290 289 289 289 289 289 289 289 289 289 289 289 288 288 288 288 288 287 287 286 286 286 285 285 285 285 285 285 285 285 285 285 284 284 284 284 284 284 284 284 284 284 283 283 283 283 283 283 283 283 283 283 283 283 283 283 283 282 282 283 283 284 284 284 284 284 284 284 284 284 284 284 284 284 285 285 285 286
295 295 295 293 292 290 290 290 290 290 290 289 289 289 289 289 289 288 288 288 288 288 288 288 287 287 286 286 286 285 285 285 285 285 285 284 284 284 285 284 284 284 284 284 284 284 284 284 284 284 284 284 283 283 283 283 284 284 284 283 283 283 283 283 283 283 282 282 282 282 283 283 283 283 284 284 284 284 284 284 284 284 285 285 286 286
296 295 295 293 292 290 290 290 290 290 290 290 290 289 289 289 289 288 288 288 288 288 287 287 287 286 286 286 286 285 285 285 285 285 284 284 284 284 284 284 284 284 284 284 284 284 284 284 284 284 284 284 283 283 283 284 284 284 284 283 283 282 282 282 282 283 282 282 282 282 282 282 282 282 283 283 283 284 284 284 284 284 284 285 285 286
296 295 295 293 292 291 290 290 290 290 290 290 290 290 289 289 289 288 288 288 288 287 287 286 286 285 285 285 285 284 284 284 284 284 284 284 284 284 284 284 284 284 284 284 284 284 284 284 284 284 284 284 284 284 284 284 284 284 284 283 282 282 282 282 282 282 282 282 282 282 282 282 282 282 282 282 283 283 283 284 284 284 284 284 285 286
295 295 295 293 292 291 291 291 290 290 290 290 290 290 290 289 289 288 288 288 288 287 286 286 285 285 284 284 283 283 283 284 284 284 284 284 284 284 284 284 284 284 284 284 284 284 284 284 284 284 284 284 284 284 284 284 284 283 283 282 282 282 282 282 281 281 281 281 281 281 281 282 282 282 282 282 282 283 283 283 283 284 284 284 284 285
295 295 295 294 293 292 291 291 291 291 290 290 290 290 290 289 289 288 288 288 287 287 286 285 284 284 284 283 283 283 283 283 283 283 283 283 283 283 284 284 284 284 284 284 284 284 284 284 284 284 284 284 284 284 284 284 284 283 282 282 281 281 282 282 281 281 281 281 281 281 281 281 281 281 281 282 282 282 282 283 283 283 284 284 284 284
296 295 295 294 293 292 292 291 291 291 291 290 290 290 290 289 289 288 288 288 287 287 286 285 284 284 284 284 284 284 284 283 283 282 282 282 283 283 283 283 284 284 284 284 284 284 284 284 284 284 284 284 284 284 284 284 283 282 282 281 281 282 282 282 281 281 281 281 281 281 281 281 281 281 281 281 281 282 282 282 282 283 283 284 284 284
295 295 295 295 294 293 292 292 291 291 291 291 290 290 290 289 289 288 288 288 287 287 286 285 285 284 284 284 284 284 284 284 283 283 282 282 282 283 283 283 283 283 284 284 284 284 284 284 284 284 284 284 284 284 284 283 282 282 281 281 282 282 282 282 282 282 281 281 281 281 281 281 281 281 281 281 281 281 282 282 282 282 283 283 283 284
294 294 295 295 294 293 293 292 292 291 291 291 291 290 289 289 289 288 288 288 287 287 286 286 285 285 285 285 284 284 284 284 284 283 283 283 282 282 282 283 283 283 283 284 284 284 284 284 285 284 284 284 283 283 283 282 282 282 282 282 282 282 282 282 282 282 282 282 281 281 281 281 281 281 281 281 281 281 282 282 282 282 282 283 283 283
293 293 293 294 294 294 293 293 292 292 291 291 291 290 290 289 289 288 288 288 287 287 287 286 286 285 285 285 285 285 284 284 284 284 283 283 282 282 282 282 282 283 283 283 283 283 283 283 283 283 284 283 283 283 282 282 282 282 282 282 282 282 282 282 282 282 282 282 282 282 282 282 281 281 281 281 281 281 282 282 282 282 282 282 283 283
Wind_Speed
23 22 20 18 17 15 14 12 10 9 7 6 6 5 6 7 8 9 10 11 12 13 13 14 14 15 15 15 14 14 14 14 13 12 11 11 11 10 8 8 9 9 8 7 6 6 6 7 8 9 9 9 8 6 4 3 3 2 2 2 2 2 4 6 6 6 8 9 11 12 15 17 19 20 20 20 19 19 18 17 16 16 15 13 11 8
23 22 20 18 16 15 13 11 9 8 6 5 4 4 5 6 7 9 10 11 11 12 12 13 13 13 12 12 11 12 12 13 13 12 12 11 11 10 8 8 9 9 8 6 5 6 7 7 7 8 8 7 5 4 3 3 2 1 1 1 0 1 2 4 5 7 8 8 9 8 9 11 13 14 16 17 17 16 15 14 14 13 12 10 8 6
23 21 19 17 16 14 12 10 8 7 5 4 4 4 5 6 7 8 9 9 10 11 10 10 10 10 9 9 9 9 10 11 12 13 12 12 11 10 8 9 9 9 7 6 6 6 7 6 7 6 6 4 4 3 3 2 1 0 1 0 1 2 3 4 6 7 8 8 8 7 7 7 7 7 8 9 10 10 10 10 9 8 7 6 5 4
22 21 19 18 16 13 11 8 6 4 3 3 4 5 6 6 7 8 8 8 8 8 9 8 8 8 8 8 8 8 8 10 11 12 12 12 12 10 9 9 9 9 8 7 7 7 6 5 5 4 4 4 3 3 2 1 0 1 1 2 2 3 5 6 7 7 7 7 6 6 6 6 6 5 5 5 5 5 5 5 4 4 4 4 4 4
20 18 17 17 15 12 10 7 5 3 1 2 4 5 6 6 6 7 7 6 6 6 7 7 7 7 7 7 7 7 7 8 10 11 12 13 13 12 11 11 10 9 9 8 8 7 5 4 3 3 3 3 3 2 1 1 1 2 2 3 3 3 4 5 6 6 6 6 5 5 5 5 4 4 4 5 5 5 4 4 2 1 2 3 4 4
16 15 16 15 13 11 9 6 4 2 1 3 5 5 6 6 6 5 5 5 5 5 6 7 7 7 6 6 6 7 7 8 9 10 11 12 13 14 13 12 11 11 11 10 8 6 5 3 3 3 3 3 3 3 3 2 2 2 3 3 3 3 3 3 4 5 5 4 3 3 3 2 2 2 3 4 4 4 4 3 2 1 3 4 5 5
14 14 14 13 11 9 7 5 3 1 1 3 4 5 5 5 5 4 4 4 4 4 5 5 6 6 6 6 6 7 8 8 8 9 9 11 13 14 14 13 13 14 13 11 8 7 5 4 3 3 3 3 4 4 4 3 2 2 3 4 4 3 2 2 3 4 4 3 2 1 1 1 0 1 1 3 3 4 4 3 2 2 3 4 5 5
13 14 12 11 9 8 6 5 3 1 1 2 3 3 4 4 4 3 3 3 3 3 3 3 4 5 5 6 6 7 7 8 8 8 8 9 11 13 13 14 15 16 15 12 9 7 7 5 4 3 3 3 4 5 5 4 3 2 3 4 4 3 2 2 3 3 3 3 2 2 1 1 1 0 1 3 3 3 3 2 2 1 1 2 2 2
15 14 12 10 9 8 7 5 3 2 1 1 2 3 3 4 4 4 3 3 3 3 3 3 3 3 4 5 6 6 7 8 8 7 7 7 9 11 12 14 15 16 16 14 11 9 9 6 4 3 2 3 4 5 6 5 3 2 2 3 3 3 2 2 2 3 3 3 3 3 2 1 1 2 3 3 3 2 1 1 1 1 1 0 0 1
16 14 12 10 8 7 7 5 4 2 2 2 3 3 4 3 3 4 3 3 3 3 3 3 3 3 3 4 5 6 7 7 7 7 7 6 7 9 11 13 13 14 16 15 14 12 10 7 4 2 2 2 4 5 6 5 4 2 2 2 3 2 2 2 2 3 3 3 3 3 3 2 2 3 4 4 3 3 2 2 2 2 2 1 1 2
15 14 12 10 8 6 6 5 4 3 3 3 3 4 3 3 3 4 5 5 6 5 5 5 4 4 3 3 4 5 6 6 6 6 6 5 6 8 10 11 12 13 16 16 15 13 11 7 4 2 2 3 4 5 5 5 3 2 2 2 2 2 1 1 2 3 3 4 4 4 3 3 3 3 4 5 5 4 4 4 4 4 3 3 4 4
15 14 12 10 8 7 6 6 5 4 4 4 3 2 1 2 3 4 5 7 8 8 7 7 6 6 5 4 3 4 5 5 4 4 4 3 3 5 8 9 10 12 15 15 14 13 10 7 4 3 3 4 5 5 5 4 3 2 1 1 1 1 1 1 2 3 4 5 5 5 5 4 3 3 4 4 5 5 4 5 5 5 5 5 6 7
16 15 13 12 10 9 8 7 6 5 5 4 3 2 1 2 3 4 5 7 9 9 9 9 8 6 5 4 4 4 4 4 3 3 2 2 2 3 6 8 11 14 16 15 14 12 10 7 5 4 4 5 5 5 5 4 2 1 1 1 1 1 1 2 3 5 5 6 6 6 6 5 5 5 5 4 4 4 5 5 6 6 6 7 8 8
15 15 14 13 12 11 10 9 8 7 6 4 4 3 2 3 4 5 6 8 9 9 9 9 7 5 4 4 3 3 3 3 3 2 1 1 1 3 6 10 13 15 16 15 14 12 10 8 6 5 6 6 6 5 4 3 2 1 1 0 0 1 2 4 5 5 6 6 7 7 7 7 7 6 6 5 5 5 6 6 7 7 8 9 9 10
14 14 13 12 12 11 10 9 8 7 5 4 3 2 1 3 4 5 6 8 9 9 9 7 5 3 3 3 3 3 2 2 2 2 2 2 3 5 8 12 15 16 16 15 14 12 10 8 7 7 6 6 6 5 4 3 2 1 1 1 0 1 2 3 4 5 5 6 7 8 8 9 8 8 7 7 6 6 7 7 8 8 9 10 11 12
14 13 12 12 12 11 10 9 8 7 5 4 3 2 2 2 4 5 6 7 8 8 7 5 3 2 1 2 3 3 3 2 1 3 4 4 4 6 9 12 14 15 14 14 13 11 10 8 8 7 7 6 6 5 4 3 2 2 1 0 0 1 1 3 3 4 5 6 7 8 9 9 9 9 9 8 8 7 7 8 8 9 10 10 11 12
13 13 13 12 12 11 9 8 7 7 6 5 4 3 3 4 4 5 6 6 6 5 5 4 3 3 2 2 2 2 2 2 1 3 5 4 5 7 9 10 13 14 13 12 12 11 10 9 8 7 7 7 6 5 4 4 3 2 1 1 1 1 2 3 4 5 6 7 8 9 9 10 10 10 10 10 9 9 8 8 9 9 9 10 10 10
13 13 13 12 11 10 9 8 7 7 6 6 5 5 5 5 5 5 5 5 4 3 2 2 1 2 4 3 3 3 2 2 1 3 4 5 5 7 9 10 11 13 13 13 12 11 10 9 8 7 7 6 6 5 5 4 3 3 2 2 1 2 3 4 5 5 6 7 8 9 9 10 10 10 10 9 9 9 9 8 8 9 9 9 9 9
14 13 13 12 11 10 9 8 8 7 7 7 6 6 5 5 4 4 4 3 2 2 1 1 1 1 2 2 3 2 2 2 2 2 3 4 5 7 8 9 10 11 13 13 13 12 11 9 8 7 7 6 6 5 5 4 4 3 3 3 3 3 3 4 5 6 6 7 8 8 8 9 9 9 9 9 9 8 8 8 8 8 8 8 8 8
14 12 12 11 11 10 9 8 8 8 8 7 7 7 6 5 4 4 3 2 2 1 1 1 2 2 2 2 2 2 2 2 2 2 2 2 4 6 7 8 9 10 11 12 12 12 10 9 8 7 7 7 6 6 6 5 5 5 4 4 4 4 4 5 5 6 6 7 7 8 8 8 9 9 9 9 9 8 8 8 8 8 9 9 9 9
13 11 10 10 10 10 9 9 9 9 8 8 7 7 7 6 5 4 4 3 2 1 1 1 1 2 2 3 2 2 2 2 2 2 2 2 2 4 6 7 8 9 10 11 11 11 10 9 8 7 7 7 7 7 7 6 6 6 6 5 5 5 5 6 6 6 7 8 8 9 9 9 10 10 10 10 9 9 9 9 9 9 9 9 10 10
11 11 10 10 9 9 10 9 9 9 8 8 8 7 7 6 5 5 4 4 3 3 2 1 1 1 2 2 2 2 3 3 3 2 2 1 1 3 5 6 8 8 9 10 11 11 10 9 9 8 8 8 8 8 8 8 7 7 6 7 7 7 7 8 8 8 9 9 10 10 10 11 11 11 11 11 11 10 10 10 10 10 10 10 10 10
10 11 11 10 9 9 9 9 9 8 8 8 7 7 6 5 5 4 4 4 3 3 3 2 1 1 1 2 2 2 3 3 3 3 2 1 1 2 3 5 6 8 9 10 11 11 11 11 10 10 9 9 9 9 9 9 9 8 7 7 7 7 8 9 9 10 10 11 11 11 11 12 12 12 12 12 12 12 12 12 12 11 11 11 11 11
10 11 11 10 9 9 8 8 8 8 7 7 7 6 5 4 4 4 3 3 3 3 3 2 2 1 1 2 2 3 3 3 3 2 2 2 2 2 2 3 4 6 7 9 11 12 12 12 12 12 11 11 10 11 11 11 10 10 9 9 9 9 9 9 10 10 11 11 12 12 13 13 13 13 13 13 13 13 13 13 13 13 13 12 12 11
9 9 10 9 9 8 8 8 8 7 7 7 6 5 5 4 4 4 4 4 4 4 3 3 2 2 2 3 3 3 3 3 2 2 2 3 2 2 3 3 3 4 6 7 9 11 12 12 13 13 13 12 12 12 12 12 12 12 12 12 12 12 12 11 11 11 11 11 12 12 13 13 14 14 14 14 14 14 14 14 14 14 14 13 13 12
8 8 8 8 8 8 7 7 7 7 6 6 5 5 5 4 4 4 4 5 4 4 3 3 3 3 4 4 3 3 3 3 3 2 2 3 2 2 4 4 4 4 5 6 7 9 10 11 12 13 13 13 14 14 14 14 14 14 14 14 14 14 14 14 14 14 13 12 12 12 12 13 14 14 15 15 15 15 15 14 14 14 14 14 13 13
8 8 8 8 8 8 8 8 7 7 6 6 5 5 5 5 5 6 6 5 5 4 4 4 4 4 5 4 4 3 3 3 2 2 2 3 3 3 4 5 5 5 6 6 7 7 8 9 10 11 12 13 14 14 15 15 15 16 16 16 16 16 17 17 17 17 16 16 15 14 13 13 13 14 15 16 16 16 15 15 15 14 14 13 13 13
9 9 9 9 9 8 8 7 7 6 6 6 6 6 5 5 6 6 6 5 5 5 5 6 5 4 5 4 4 4 4 3 3 3 3 3 3 3 4 5 6 6 7 8 8 8 8 9 9 10 11 12 13 14 14 15 16 16 16 17 17 17 17 18 18 18 18 18 18 17 16 15 14 13 14 15 16 16 16 16 15 14 13 13 13 14
11 10 10 10 9 9 8 7 7 6 6 6 6 6 6 5 5 5 5 5 5 6 6 7 7 6 5 5 4 4 4 3 3 3 3 2 3 3 4 4 5 6 7 6 6 6 6 6 6 7 8 10 11 12 13 14 14 15 15 16 16 17 17 18 18 18 19 19 19 19 19 18 16 15 13 13 14 15 15 15 14 14 13 14 14 15
12 11 11 10 9 9 8 8 7 6 6 6 6 6 6 6 6 6 5 5 5 6 7 8 7 7 5 4 3 2 2 2 2 2 2 1 2 3 3 3 4 4 5 4 3 3 2 1 2 3 4 5 6 7 8 8 9 10 11 12 13 14 14 15 16 17 18 18 19 19 19 19 19 17 15 14 13 13 13 13 13 13 14 15 15 15
12 11 11 10 9 9 8 7 7 6 6 6 6 6 6 6 6 6 6 5 5 5 7 8 8 7 6 4 2 1 1 2 2 1 0 0 1 1 1 2 3 3 3 2 2 2 1 1 2 2 2 1 0 1 2 3 3 4 5 6 7 8 10 11 12 13 14 15 16 17 18 19 19 19 18 17 15 13 12 12 11 12 13 15 15 16
12 11 10 10 9 9 8 7 7 6 6 6 6 6 6 6 6 6 6 5 5 4 5 7 7 7 6 4 3 2 2 2 2 0 0 1 1 1 1 2 2 2 2 1 1 1 0 2 2 2 2 2 2 2 3 5 5 6 6 6 6 6 7 8 9 10 11 12 13 14 15 16 17 18 19 19 18 16 15 13 12 12 13 15 15 16
11 11 10 10 9 9 8 8 7 7 7 7 6 6 6 6 6 6 6 5 4 4 4 5 6 6 6 4 3 2 1 1 1 1 2 2 1 1 1 1 2 2 2 2 3 3 3 3 3 2 3 4 5 7 8 8 9 9 8 7 7 7 7 7 8 8 9 10 10 11 12 13 15 16 18 19 19 19 18 17 16 15 14 15 16 16
11 10 10 9 9 9 8 8 8 8 7 7 7 7 6 6 6 6 5 5 4 3 3 3 3 4 4 4 3 2 1 2 1 2 3 3 2 2 2 1 2 2 2 2 3 4 4 5 5 5 6 8 9 10 10 9 9 8 8 7 7 7 7 8 8 9 9 10 10 11 11 12 13 15 16 18 19 20 20 20 19 18 17 16 16 16
11 10 9 9 9 9 8 8 8 8 8 8 7 7 7 6 6 5 5 4 3 3 3 2 2 2 2 2 3 3 3 2 2 3 3 3 3 3 2 2 2 2 2 2 2 2 3 4 5 5 5 7 8 9 8 7 6 6 6 6 6 7 8 8 9 9 10 10 11 11 11 12 13 14 15 16 18 19 20 21 21 20 19 17 17 17
9 9 9 9 9 9 9 9 9 9 9 8 8 7 7 6 6 5 5 4 4 3 3 2 2 1 1 1 2 2 3 3 3 3 4 4 4 3 3 2 3 3 3 3 2 2 3 4 5 6 6 6 6 5 5 5 5 5 6 6 7 7 8 9 10 10 11 11 11 11 11 12 12 13 14 15 16 17 18 19 20 20 19 18 16 16
8 8 8 8 9 9 9 9 9 9 9 9 8 8 7 7 6 6 5 5 4 4 3 3 2 2 1 1 1 1 2 2 3 3 4 4 5 4 3 3 4 4 3 3 4 4 4 4 5 6 6 5 4 3 4 6 8 8 8 9 9 9 10 11 11 12 12 12 12 12 12 12 12 12 13 14 15 15 16 17 18 18 19 18 17 15
7 7 8 8 9 9 10 10 10 10 10 9 9 8 8 7 6 6 5 5 4 4 3 3 2 2 1 1 0 1 1 2 3 3 4 4 4 4 4 4 4 4 4 5 5 5 5 4 4 4 4 4 5 6 8 10 12 12 12 12 11 11 12 12 12 13 13 13 12 12 12 12 12 12 12 13 13 13 14 15 15 16 17 17 17 17
8 8 8 9 9 10 10 10 10 10 10 9 9 8 8 7 6 5 5 4 4 3 3 2 2 1 1 1 1 1 2 2 2 3 3 4 4 4 4 4 4 4 5 5 6 6 6 5 4 3 3 4 5 7 10 11 13 14 15 15 14 12 11 11 11 11 11 11 11 11 11 11 11 11 10 11 11 11 11 12 12 13 14 15 17 18
9 9 9 9 9 10 10 11 11 10 10 9 9 8 7 6 5 5 4 3 2 2 2 2 2 2 1 1 1 2 2 2 3 3 3 3 4 4 4 4 4 5 5 5 6 6 6 6 7 7 7 6 7 10 11 12 14 15 16 16 15 13 12 11 10 9 9 8 8 9 9 9 9 8 8 8 8 9 9 9 10 10 11 12 14 16
10 10 10 9 9 10 11 11 11 11 10 10 9 8 7 6 5 4 3 2 1 1 2 2 2 2 2 2 2 2 2 2 2 3 3 3 4 4 4 5 5 5 5 5 6 6 7 7 8 9 10 10 12 13 14 14 14 14 14 15 16 16 14 11 8 7 6 6 6 7 7 8 8 7 7 7 7 7 8 8 9 9 10 11 12 13
11 11 10 10 10 11 11 12 12 11 11 10 9 8 7 6 5 4 3 2 1 1 1 2 2 2 2 2 2 2 2 2 2 3 3 3 4 4 4 5 5 5 6 6 6 6 7 7 8 9 9 10 11 12 13 13 13 12 13 14 16 16 13 9 7 7 7 7 7 7 8 9 9 9 9 8 8 8 8 8 8 9 9 9 10 11
11 10 9 9 10 11 12 12 13 12 12 11 10 8 7 6 5 4 3 3 2 2 3 3 3 2 2 2 2 2 3 3 3 3 3 3 4 4 4 5 5 6 6 6 7 7 7 7 8 8 8 9 10 11 13 14 13 13 13 13 15 14 11 11 11 11 11 10 9 9 10 11 11 12 12 11 10 9 8 8 8 9 9 9 9 10
11 10 9 9 10 11 12 13 13 12 12 11 10 9 8 7 6 5 4 4 3 3 3 4 4 3 2 3 3 3 3 3 3 4 4 4 5 5 5 5 6 7 7 7 7 7 8 8 8 8 8 9 10 11 12 13 14 14 13 13 14 14 13 14 14 14 12 11 10 10 10 11 12 13 13 13 12 10 9 9 9 9 9 9 10 10
10 9 9 10 11 12 12 13 12 12 12 11 11 10 10 9 8 7 6 5 4 4 3 3 3 2 1 2 2 2 3 2 3 4 4 5 6 6 6 6 7 7 7 7 7 7 8 8 8 9 9 9 10 11 12 13 14 14 14 13 13 13 12 12 12 12 11 10 9 9 9 10 11 12 12 12 12 11 10 9 9 9 9 9 10 10
11 10 10 11 11 12 13 13 13 12 12 12 11 11 11 10 10 9 7 6 5 3 3 3 3 2 0 0 1 2 3 3 3 3 4 4 5 6 7 7 7 7 7 7 8 8 8 8 8 9 9 10 11 12 12 13 13 14 13 12 11 10 9 8 8 8 8 8 8 8 8 9 10 10 11 11 12 11 11 10 9 9 9 9 10 10
12 11 11 11 12 13 13 13 13 13 13 12 12 12 11 11 11 10 8 6 4 2 1 3 3 2 1 1 2 3 4 5 5 5 4 3 4 5 6 7 7 8 8 7 7 7 8 8 8 9 10 10 11 12 13 12 12 12 11 10 8 7 7 7 7 7 6 7 7 7 8 8 8 9 9 10 11 11 11 10 9 9 9 9 10 10
13 12 12 12 13 13 14 14 14 14 13 13 12 12 12 12 12 10 9 6 4 1 1 2 2 2 2 2 3 3 4 5 6 7 6 5 4 3 3 5 6 7 7 8 8 8 8 8 9 10 10 10 11 12 12 11 9 8 7 6 6 6 6 7 7 7 7 7 7 7 8 8 8 9 9 10 11 11 10 9 8 8 8 9 9 10
14 14 13 13 14 14 15 15 15 15 14 13 13 13 13 13 12 10 8 6 3 1 0 1 2 2 2 2 3 4 4 5 5 6 6 6 5 4 4 4 4 5 6 7 7 8 9 9 10 11 11 11 10 10 9 7 5 4 4 4 4 5 6 7 8 8 9 9 8 8 8 8 8 9 9 11 11 11 10 9 8 7 7 7 8 8
15 15 14 14 15 15 16 16 16 16 15 14 14 14 14 13 12 10 8 6 4 2 0 1 1 1 1 2 2 3 4 4 5 5 5 6 6 6 5 5 4 4 5 5 6 6 7 7 8 9 9 8 7 6 5 3 2 2 2 3 4 5 6 8 9 10 10 10 10 9 8 8 8 8 9 10 11 11 11 9 7 5 4 5 5 6
15 15 14 15 15 15 16 16 16 16 16 15 15 15 15 14 13 11 9 7 5 3 1 1 1 1 1 1 2 3 3 3 4 4 4 5 5 6 6 6 5 5 5 5 6 6 6 5 4 4 4 4 4 3 2 2 2 2 3 3 4 6 8 10 11 12 12 11 11 10 9 8 8 7 8 9 10 11 11 10 8 5 4 3 3 3
Wind_Direction
170 171 173 176 175 173 176 185 192 199 208 217 229 242 255 267 277 282 285 288 290 292 293 293 292 292 291 288 285 280 274 269 264 260 258 257 257 255 253 250 247 245 246 250 255 260 264 270 278 285 288 289 286 279 266 254 250 254 262 271 326 20 80 82 63 34 18 18 28 46 62 76 87 97 105 112 118 120 119 117 120 124 124 123 120 115
169 169 170 175 177 175 175 182 190 197 208 223 243 262 276 288 295 298 300 300 299 298 298 296 294 291 288 283 278 273 266 261 256 252 250 250 251 250 245 244 244 243 241 243 247 253 260 270 279 283 282 278 266 245 224 218 223 238 253 227 167 75 75 55 32 12 2 358 3 14 32 50 65 77 88 97 104 108 108 109 112 117 119 117 112 102
167 166 168 173 176 177 175 178 186 198 212 235 265 285 297 303 305 308 310 310 307 303 300 296 293 289 284 279 275 270 264 258 253 248 245 245 246 246 243 243 243 241 234 233 240 250 261 272 277 275 267 250 225 201 187 186 199 268 315 293 254 260 277 307 325 333 339 345 352 358 2 8 20 37 55 69 80 89 94 95 97 99 98 96 92 87
167 166 169 172 176 178 176 173 175 188 215 253 286 302 308 312 313 314 314 314 310 304 299 294 288 284 280 278 277 274 269 263 256 250 245 241 240 240 239 241 241 238 229 227 235 247 260 269 268 257 236 212 193 181 172 176 285 317 321 310 294 284 284 297 310 321 330 339 350 359 1 1 358 358 4 14 26 35 41 49 55 62 68 78 86 91
168 169 171 173 173 172 173 170 169 179 234 296 311 317 319 319 319 319 319 316 310 302 296 291 285 280 277 277 278 279 277 271 264 255 248 241 235 232 232 235 237 235 228 226 231 239 248 253 247 229 208 191 185 189 208 241 290 308 310 308 300 298 303 312 318 323 327 330 338 348 356 1 6 9 8 8 6 2 360 359 5 44 106 117 114 109
170 172 173 173 169 164 161 161 164 172 328 327 323 321 323 322 322 323 322 318 311 303 296 292 286 280 275 273 276 280 281 279 273 264 254 244 235 229 226 228 231 231 227 224 223 225 226 226 223 211 196 189 199 218 232 245 273 299 307 306 299 296 305 315 317 313 309 307 312 325 339 350 7 30 35 27 15 4 355 346 324 238 179 164 156 148
170 172 172 171 167 160 151 144 140 122 13 343 328 320 319 321 323 323 319 315 308 301 295 292 287 280 272 269 274 280 283 284 281 275 263 250 240 232 227 224 226 227 224 220 215 213 213 214 214 209 199 197 212 228 234 240 259 292 310 312 306 300 298 299 296 289 279 266 255 264 295 298 10 74 44 15 1 351 341 329 307 261 208 185 176 169
162 164 166 163 159 153 145 133 119 93 17 337 321 313 312 315 316 315 310 303 296 290 282 276 276 275 270 270 275 282 286 288 288 285 274 258 245 236 229 225 225 225 221 217 214 213 214 214 214 215 210 209 221 232 236 237 248 280 308 316 316 310 301 284 274 267 257 244 237 241 244 226 201 338 345 340 335 330 324 313 298 269 232 206 197 192
155 155 157 155 150 144 137 135 128 118 117 251 268 283 296 304 306 305 300 293 292 291 281 260 253 257 266 272 278 284 288 291 294 293 284 265 247 236 230 228 226 223 218 216 216 218 217 213 214 221 230 228 233 237 239 238 242 263 296 312 316 314 298 265 251 252 256 259 261 263 262 263 295 328 335 334 328 318 297 239 183 168 146 158 327 330
157 154 151 149 149 145 137 137 144 157 166 218 248 266 280 295 306 309 309 310 313 314 310 299 283 265 256 263 270 276 282 289 296 298 290 268 245 232 228 230 228 222 217 216 217 219 216 211 210 226 253 253 247 243 242 239 240 250 278 298 307 304 283 240 228 238 252 259 264 265 267 282 308 324 331 329 322 307 278 233 202 187 180 190 288 319
156 157 151 147 150 156 154 155 165 185 203 227 248 262 275 292 309 321 327 329 325 324 329 336 331 317 295 274 265 267 271 281 291 296 295 276 245 231 229 232 229 221 214 212 214 214 212 208 210 232 261 263 255 247 243 238 235 241 261 283 296 296 266 223 226 241 249 251 251 249 251 262 290 311 320 317 310 301 286 265 243 229 232 252 270 283
156 157 156 154 154 158 163 169 180 196 211 223 231 244 286 323 326 324 325 326 322 321 329 342 347 342 328 312 288 271 267 271 277 287 297 295 261 238 233 230 222 212 206 204 205 206 207 207 215 238 258 260 254 245 236 228 224 229 250 277 291 294 264 239 249 257 256 252 249 247 245 248 264 286 299 301 297 291 282 269 260 258 266 275 280 281
160 158 155 155 155 156 159 164 174 188 201 210 210 203 235 331 332 325 317 315 313 316 326 335 342 344 340 325 307 292 280 269 262 264 287 319 302 257 232 213 202 197 197 196 197 200 206 211 222 240 254 253 247 237 223 213 207 207 236 286 299 258 224 245 255 258 259 257 258 258 258 260 266 272 276 276 272 268 265 263 265 269 277 281 283 284
157 154 151 149 151 157 162 167 173 182 192 200 208 218 251 314 324 319 312 306 306 311 322 330 335 339 346 340 324 307 295 273 249 236 256 290 273 230 207 190 186 188 192 193 196 201 209 216 225 238 247 245 236 223 210 200 188 175 155 41 40 205 220 233 242 250 257 262 268 272 275 277 278 275 269 261 254 252 253 258 265 271 277 280 283 284
153 150 146 146 151 158 164 169 174 177 183 197 207 221 282 305 303 298 293 291 297 308 320 329 336 344 355 2 352 333 319 292 243 216 222 218 205 194 187 178 178 183 189 192 196 203 211 217 223 231 235 231 221 209 200 191 180 162 133 95 92 212 236 242 245 249 257 265 272 277 280 282 281 279 273 265 258 253 255 260 266 272 277 281 284 286
157 152 147 148 153 159 165 168 170 172 181 196 207 221 254 261 268 272 276 282 294 309 326 343 356 17 37 14 358 348 341 329 242 215 218 210 194 184 182 175 176 181 189 194 198 203 210 214 218 221 220 214 207 202 196 192 186 176 157 124 32 296 273 271 267 265 265 268 272 274 276 278 280 280 278 275 271 267 266 268 272 277 281 285 287 289
160 157 154 154 155 159 164 170 175 181 187 198 207 215 223 231 244 259 270 282 299 317 338 356 1 355 357 26 18 355 341 336 258 225 226 220 203 191 186 180 179 185 195 201 205 207 210 210 210 209 207 204 202 201 200 199 199 197 194 209 269 288 285 280 278 275 271 270 271 273 275 278 281 282 283 282 281 280 279 280 282 284 288 291 293 295
162 162 161 158 158 160 164 169 177 186 195 198 201 206 213 224 239 255 269 283 300 321 337 351 350 339 336 351 0 354 331 333 289 240 234 232 220 205 196 191 189 193 200 206 211 214 212 208 205 202 201 203 204 206 207 210 211 213 215 227 250 268 276 277 278 278 276 275 275 276 278 281 284 286 287 288 289 289 289 290 291 293 295 298 301 304
164 166 165 163 162 163 166 171 178 185 190 192 194 196 201 216 233 248 260 273 286 294 294 283 263 274 307 329 337 330 309 309 293 265 252 238 228 219 211 204 200 201 204 206 210 214 213 210 208 207 205 207 210 213 217 221 223 226 231 237 249 260 269 276 280 282 282 283 283 284 285 287 289 292 294 296 297 298 299 301 301 302 303 306 308 311
164 167 169 169 166 165 168 177 185 189 190 192 194 196 198 209 220 229 232 239 251 262 267 250 244 248 260 281 296 300 287 283 285 284 270 247 233 227 222 216 213 210 208 207 209 211 211 211 212 212 212 214 218 221 225 229 232 236 241 247 253 260 268 275 282 286 289 290 291 293 294 295 297 298 300 302 304 307 309 311 313 314 314 315 317 318
165 166 171 175 173 171 173 180 186 189 192 195 198 201 204 209 211 211 209 204 202 203 214 226 232 240 250 265 280 289 277 279 287 290 281 268 250 237 229 224 222 220 216 213 213 213 213 215 217 219 220 222 225 228 231 235 239 245 252 258 265 270 278 283 289 292 295 296 297 298 299 301 302 303 303 304 306 308 311 315 317 319 320 321 321 322
166 164 167 172 176 176 176 178 181 185 192 198 202 205 207 208 205 200 196 190 183 176 172 167 182 220 244 262 268 268 269 272 274 272 265 251 252 246 234 228 225 223 222 221 221 221 221 224 227 230 232 233 234 235 237 241 246 253 260 269 275 281 287 291 293 295 296 297 297 298 299 301 302 302 303 303 304 306 308 311 314 316 318 320 320 321
160 158 161 166 169 171 171 172 177 185 194 201 207 211 211 209 201 193 185 181 175 168 162 165 185 219 245 260 261 260 265 266 266 260 248 237 251 255 240 231 226 225 225 226 227 228 230 232 235 238 241 242 244 245 245 246 249 252 255 259 263 270 277 282 286 288 290 291 292 293 294 296 297 297 298 299 301 302 304 306 308 310 313 314 316 317
154 155 159 162 164 166 168 172 179 188 196 203 207 208 206 201 192 185 181 184 185 187 189 195 200 216 241 250 254 255 256 261 263 254 235 230 243 264 264 247 236 231 231 231 232 233 235 237 239 241 243 246 248 249 250 251 252 252 251 249 248 250 256 262 269 275 279 281 283 285 286 287 288 289 290 292 294 297 299 301 303 305 306 308 310 312
152 153 155 158 162 168 172 177 183 189 195 200 201 199 194 187 182 181 187 195 197 196 193 184 184 206 231 243 247 249 248 259 264 251 224 226 246 274 281 276 264 252 244 240 239 239 239 240 241 243 244 246 248 249 251 252 253 254 253 252 250 249 249 250 254 259 265 270 274 276 278 280 280 280 281 284 286 290 292 295 297 299 301 303 305 307
151 151 153 156 160 165 169 173 179 184 190 194 195 192 187 181 178 180 187 193 195 193 183 181 197 215 219 229 237 242 241 252 262 257 229 223 235 270 281 282 278 271 263 256 250 246 245 245 245 245 246 247 249 250 251 252 253 254 255 255 255 255 254 254 254 254 256 259 263 266 271 273 273 273 274 276 279 282 286 288 290 292 294 297 298 300
152 153 153 154 156 159 163 167 171 175 179 181 183 183 182 182 183 184 187 193 196 191 178 185 204 216 212 210 216 225 229 236 250 259 251 234 228 247 273 281 283 282 279 275 267 259 255 252 250 249 249 250 251 252 253 254 254 255 256 256 257 257 258 258 258 258 258 258 259 260 263 267 268 268 270 271 273 276 279 281 283 286 288 290 291 293
151 151 150 150 151 153 155 158 161 163 165 166 168 170 175 181 182 180 180 190 193 186 183 191 200 207 201 193 197 213 224 230 240 250 255 243 228 236 262 278 285 290 292 291 285 278 270 262 256 252 250 251 251 252 253 255 256 257 258 258 259 260 260 261 261 261 261 261 261 260 260 262 264 266 268 268 269 271 273 276 278 281 283 283 284 286
148 147 146 146 146 147 148 149 149 150 151 153 156 161 169 175 172 167 171 181 182 180 187 196 201 201 197 194 198 209 220 225 231 243 255 240 227 237 263 279 289 295 302 305 299 290 280 269 259 251 249 250 251 252 254 256 258 260 261 263 263 264 264 264 263 263 263 263 262 262 261 260 259 260 262 264 265 266 270 272 275 278 280 281 282 284
146 146 146 146 146 147 148 148 147 145 144 145 149 155 162 168 166 163 167 173 173 178 189 194 198 199 197 193 190 193 203 203 209 229 252 226 222 241 276 289 297 306 315 321 319 314 316 296 270 251 243 248 253 257 261 263 265 267 268 269 270 270 269 268 267 266 265 265 264 263 262 260 258 256 255 256 258 261 264 267 271 275 279 281 282 283
145 145 146 146 148 149 151 151 150 148 146 146 147 151 154 160 163 166 168 169 173 181 189 186 187 191 194 184 166 147 156 160 161 171 238 215 230 269 318 313 313 319 326 335 350 354 353 26 54 84 109 111 60 343 325 316 306 298 292 288 286 282 278 275 273 271 269 268 267 266 264 262 259 256 254 253 253 253 255 259 264 271 276 279 280 280
144 145 145 146 148 151 153 153 153 152 151 150 149 149 149 151 154 157 158 161 169 182 188 181 178 181 188 182 168 152 137 137 134 122 324 346 341 335 343 322 320 324 325 311 311 311 184 340 12 81 97 80 30 354 340 330 322 316 311 308 302 296 288 283 279 277 275 273 272 270 269 266 262 259 257 255 254 253 253 254 257 263 269 274 277 278
144 145 146 148 149 151 153 154 154 153 153 151 149 147 146 146 147 149 150 153 159 168 177 176 175 178 183 184 179 169 153 160 176 260 295 305 309 312 319 312 310 312 314 292 273 266 260 297 308 302 292 293 299 303 307 307 306 305 303 300 294 288 283 280 279 277 276 275 274 273 271 269 265 262 259 258 257 257 257 257 257 259 263 269 274 277
145 147 148 150 151 153 154 155 154 153 151 149 146 145 143 143 143 144 145 146 149 154 157 159 166 175 183 187 187 186 200 215 237 265 279 289 291 290 297 296 295 297 302 293 274 265 268 275 286 294 297 297 298 300 304 305 305 304 301 296 289 283 280 277 276 275 275 275 275 274 273 271 268 265 263 260 259 259 259 260 259 258 260 264 269 274
146 148 150 152 154 155 156 156 155 152 150 147 145 143 142 141 139 139 138 136 137 138 140 142 144 153 170 183 190 193 199 216 242 264 273 278 281 282 286 282 280 285 292 292 287 278 275 276 283 292 301 306 306 305 307 309 310 309 305 299 293 289 287 285 284 282 281 280 278 277 275 274 272 270 267 265 263 261 260 260 259 258 257 258 263 268
149 152 155 156 158 159 159 158 156 154 151 148 146 144 141 138 135 131 128 124 119 115 112 112 113 117 131 164 189 198 206 225 248 264 273 275 278 279 277 273 275 280 283 284 282 280 283 288 290 293 299 303 304 303 304 305 305 303 298 295 293 292 293 294 294 292 290 289 287 284 282 280 278 276 274 271 268 266 264 262 261 258 255 253 255 260
157 162 164 164 164 164 163 161 159 156 153 149 147 143 140 135 130 125 118 112 105 100 97 93 93 94 98 112 164 207 223 241 254 264 271 276 279 277 273 271 276 279 276 275 276 278 281 290 296 298 296 290 285 289 299 301 300 296 292 292 292 293 294 296 296 295 294 293 291 290 289 287 285 283 280 277 274 271 269 266 264 261 256 250 247 250
171 175 175 173 171 170 168 165 162 158 154 151 148 145 141 136 130 122 114 105 97 90 84 79 77 74 72 70 131 244 248 252 257 264 269 275 277 277 275 273 275 277 274 271 273 277 282 288 296 299 292 282 278 285 295 302 304 303 302 300 297 296 297 298 297 296 294 292 290 290 290 290 289 288 286 284 280 277 273 270 267 263 258 252 246 242
182 185 185 181 177 174 171 167 163 159 156 154 153 150 145 140 134 126 116 105 93 82 72 61 52 41 21 346 294 274 266 261 262 263 267 271 273 274 275 274 274 274 274 272 272 274 276 275 274 280 292 292 293 296 300 304 308 310 312 311 309 307 308 309 307 302 298 293 290 288 287 288 290 291 291 290 287 283 278 274 269 265 260 254 249 244
189 190 190 186 180 175 171 166 163 162 162 162 161 159 155 151 145 138 128 113 93 72 52 32 17 359 336 306 280 268 262 261 262 262 263 266 268 269 270 271 271 270 270 270 270 271 272 270 268 268 272 281 290 296 302 304 308 313 317 318 319 321 325 325 323 317 309 301 294 289 286 286 288 291 294 295 294 290 284 278 273 267 262 258 254 251
196 195 192 186 180 175 172 168 167 168 171 173 173 172 169 165 161 157 151 139 111 51 10 356 346 333 317 293 266 251 247 249 253 256 258 261 264 266 267 268 268 267 267 267 267 269 270 272 273 275 279 284 290 295 298 302 308 314 317 318 320 322 324 326 328 326 321 312 301 292 286 284 284 286 291 297 300 298 291 284 278 272 266 261 258 256
202 200 194 185 180 177 174 172 173 175 179 183 185 185 184 182 182 183 185 186 197 261 305 310 305 292 279 266 249 231 221 223 232 243 251 257 262 265 266 266 266 266 266 266 267 268 269 273 276 281 286 291 294 296 299 304 309 314 316 318 320 320 318 318 320 320 316 308 299 290 285 282 281 282 284 290 295 298 295 289 283 276 270 265 261 259
207 204 196 186 181 178 177 177 179 181 184 189 193 196 198 200 203 206 210 213 224 250 274 284 285 270 241 221 208 200 198 207 220 233 244 254 259 262 263 264 264 265 266 268 269 269 271 272 276 282 289 293 293 295 297 303 308 312 316 320 322 322 321 317 314 311 306 300 294 288 283 281 280 279 279 282 285 289 291 289 284 278 272 266 263 259
209 204 195 185 181 180 182 183 185 186 190 194 198 201 205 207 210 213 217 223 234 251 265 280 290 287 242 193 181 180 189 212 229 240 249 255 260 262 262 261 261 262 265 268 272 274 276 276 278 282 285 288 290 292 296 301 305 310 315 320 321 320 315 314 316 316 312 304 295 289 284 281 278 277 277 278 279 281 283 283 282 277 272 267 263 259
208 201 192 185 184 186 189 190 190 191 195 199 203 206 208 210 212 215 218 225 234 244 258 285 303 308 217 179 185 197 208 231 257 267 267 265 264 262 262 260 259 261 264 266 270 273 279 282 284 285 284 286 288 290 294 299 304 310 315 319 321 320 318 319 322 323 321 313 305 297 290 284 282 281 280 279 276 275 275 276 277 275 272 268 263 259
205 198 191 187 187 190 192 192 193 195 199 203 207 210 211 212 213 215 219 225 229 238 269 307 322 332 8 6 291 291 295 299 305 307 298 286 274 266 262 260 259 260 262 266 268 271 275 280 284 286 288 290 290 291 294 300 305 311 317 322 325 325 326 333 340 340 335 327 320 311 302 293 290 289 288 284 279 274 271 271 272 273 271 268 264 259
204 199 193 190 191 193 194 195 196 199 202 207 210 211 210 211 212 215 218 223 226 238 300 336 348 2 16 3 353 348 348 349 351 351 347 329 299 278 267 263 262 262 263 264 268 271 274 277 280 284 288 291 292 294 298 304 309 315 321 327 332 338 348 3 10 8 358 348 341 332 320 312 307 304 299 293 286 280 275 271 269 269 268 266 263 260
205 201 198 195 195 196 198 199 200 202 205 208 209 209 207 209 211 212 215 218 220 226 347 23 38 46 39 29 22 15 6 1 358 359 2 359 348 318 288 274 268 267 266 267 269 271 273 276 278 282 285 287 288 293 300 308 315 322 328 337 344 354 9 20 24 21 14 9 1 353 344 337 331 325 317 309 302 295 287 278 271 267 266 265 264 261
209 206 204 202 201 201 203 203 204 206 207 209 208 205 204 207 209 210 211 212 210 201 99 74 73 65 42 29 23 18 9 3 360 360 3 4 1 350 331 306 288 280 277 277 276 275 275 276 277 278 280 283 285 290 300 311 324 337 347 358 4 8 14 18 18 15 12 9 6 2 356 350 341 332 324 320 316 311 303 294 284 275 270 267 266 264
214 212 211 210 208 208 208 208 208 209 210 210 207 204 202 204 206 208 209 209 207 202 158 66 63 60 35 14 12 11 6 2 360 1 4 3 356 350 347 338 323 310 305 300 296 293 290 288 283 279 278 278 280 286 299 320 346 9 17 24 20 13 7 5 2 360 357 356 355 355 353 351 347 339 332 327 324 320 316 312 307 301 291 279 271 266
217 218 218 217 216 216 214 214 213 213 213 211 208 204 202 202 203 204 204 206 207 209 221 319 358 357 334 347 354 358 358 356 356 359 3 357 354 354 356 353 347 340 338 338 337 338 339 335 317 297 290 278 273 277 296 329 355 8 15 22 15 3 356 352 349 347 345 343 342 342 341 342 343 342 339 334 329 325 323 323 326 333 335 319 297 279